Liberia, Costa Rica

3:47 PM CST on August 17, 2017 (GMT -0600)
Daniel Oduber Quiros International

Weather History for MRLB - October, 2011

Change the Weather History Date:

Wednesday, October 12, 2011

  Actual Average Record
Temperature  
Mean Temperature 77 °F -  
Max Temperature 82 °F 84 °F 93 °F (2010)
Min Temperature 72 °F 73 °F 70 °F (2013)
Cooling Degree Days 12    
Growing Degree Days 27 (Base 50)    
Moisture  
Dew Point 73 °F    
Average Humidity 85    
Maximum Humidity 100    
Minimum Humidity 68    
Precipitation  
Precipitation 0.20 in - - ()
Sea Level Pressure  
Sea Level Pressure 29.88 in    
Wind  
Wind Speed 6 mph ()    
Max Wind Speed 16 mph    
Max Gust Speed -    
Visibility 7.0 miles    
Events Rain    
Averages and records for this station are not official NWS values.
T = Trace of Precipitation, MM = Missing Value Source: Averaged Metar Reports

Daily Weather History Graph

Daily Weather History Graph

Search for Another Location

Airport or City:

Trip Planner

Search our weather history database for the weather conditions in past years. The results will help you decide how hot, cold, wet, or windy it might be!

Date:

Astronomy

Oct. 12, 2011 Rise Set
Actual Time 5:30 AM CST 5:26 PM CST
Civil Twilight 5:09 AM CST 5:47 PM CST
Nautical Twilight 4:45 AM CST 6:12 PM CST
Astronomical Twilight 4:20 AM CST 6:36 PM CST
Moon 5:49 PM CST (10/12) 5:48 AM CST (10/12)
Length of Visible Light 12h 37m
Length of Day
11h 55m
Full, 100% of the Moon is Illuminated
Oct 12
Full
Oct 19
Last Quarter
Oct 26
New
Nov 2
First Quarter
Nov 10
Full

Hourly Weather History & Observations

Time (CST) Temp. Heat Index Dew Point Humidity Pressure Visibility Wind Dir Wind Speed Gust Speed Precip Events Conditions
6:00 AM 73 °F - 73 °F 100% 29.86 in 12 mi Calm Calm - -   Overcast
6:00 AM 73.4 °F - 73.4 °F 100% 29.89 in 6.2 mi Calm Calm - N/A   Mostly Cloudy
7:00 AM 75.2 °F - 73.4 °F 94% 29.91 in 6.2 mi Calm Calm - N/A   Drizzle
7:30 AM 75.2 °F - 73.4 °F 94% 29.92 in 6.2 mi SW 3.5 mph - N/A Rain Rain
8:00 AM 75.2 °F - 73.4 °F 94% 29.92 in 6.2 mi WSW 9.2 mph - N/A Rain Light Rain
9:00 AM 78 °F - 75 °F 88% 29.90 in 12 mi SW 4.6 mph - -   Overcast
9:00 AM 77.0 °F - 75.2 °F 94% 29.93 in 6.2 mi SW 4.6 mph - N/A   Mostly Cloudy
9:32 AM 77.0 °F - 73.4 °F 89% 29.93 in 4.3 mi West 11.5 mph - N/A Rain Light Rain
10:00 AM 77.0 °F - 73.4 °F 89% 29.93 in 1.9 mi West 9.2 mph - N/A Rain Rain
11:00 AM 75.2 °F - 73.4 °F 94% 29.90 in 2.5 mi West 8.1 mph - N/A Rain Rain
11:25 AM 77.0 °F - 75.2 °F 94% 29.89 in 6.2 mi West 8.1 mph - N/A   Mostly Cloudy
12:00 PM 80 °F - 75 °F 81% 29.88 in 12 mi West 16.1 mph - -   Overcast
12:00 PM 80.6 °F 86.2 °F 75.2 °F 84% 29.88 in 6.2 mi West 16.1 mph - N/A   Mostly Cloudy
1:00 PM 80.6 °F 85.4 °F 73.4 °F 79% 29.87 in 6.2 mi West 16.1 mph - N/A   Mostly Cloudy
2:00 PM 80.6 °F 84.6 °F 71.6 °F 74% 29.86 in 6.2 mi WSW 12.7 mph - N/A   Mostly Cloudy
3:00 PM 81 °F - 72 °F 68% 29.84 in 12 mi West 11.5 mph - -   Overcast
3:00 PM 80.6 °F 84.6 °F 71.6 °F 74% 29.85 in 6.2 mi West 11.5 mph - N/A   Mostly Cloudy
4:00 PM 78.8 °F - 69.8 °F 74% 29.84 in 6.2 mi WSW 11.5 mph - N/A   Mostly Cloudy
5:00 PM 77.0 °F - 69.8 °F 78% 29.84 in 6.2 mi WSW 9.2 mph - N/A   Mostly Cloudy
6:00 PM 76 °F - 70 °F 76% 29.81 in 12 mi WSW 6.9 mph - -   Overcast
6:00 PM 77.0 °F - 69.8 °F 78% 29.85 in 6.2 mi WSW 6.9 mph - N/A   Mostly Cloudy
7:00 PM 77.0 °F - 69.8 °F 78% 29.88 in 6.2 mi West 6.9 mph - N/A   Mostly Cloudy
8:00 PM 75.2 °F - 71.6 °F 89% 29.91 in 6.2 mi WSW 8.1 mph - N/A   Mostly Cloudy